Marion Regional, IL

1:37 AM CDT on May 30, 2017 (GMT -0500)
Williamson County Regional

Weather History for KMWA - April, 2013

Change the Weather History Date:

Friday, April 19, 2013

  Actual Average Record
Temperature  
Mean Temperature 46 °F -  
Max Temperature 51 °F 69 °F 86 °F (2017)
Min Temperature 39 °F 46 °F 22 °F (1983)
Degree Days  
Heating Degree Days 19    
Moisture  
Dew Point 30 °F    
Average Humidity 57    
Maximum Humidity 81    
Minimum Humidity 33    
Precipitation  
Precipitation 0.00 in - - ()
Sea Level Pressure  
Sea Level Pressure 29.92 in    
Wind  
Wind Speed 8 mph (West)    
Max Wind Speed 17 mph    
Max Gust Speed 24 mph    
Visibility 11 miles    
Events      
Averages and records for this station are not official NWS values.
T = Trace of Precipitation, MM = Missing Value Source: NWS Daily Summary

Daily Weather History Graph

Daily Weather History Graph

Search for Another Location

Airport or City:

Trip Planner

Search our weather history database for the weather conditions in past years. The results will help you decide how hot, cold, wet, or windy it might be!

Date:

Astronomy

Apr. 19, 2013 Rise Set
Actual Time 6:15 AM CDT 7:35 PM CDT
Civil Twilight 5:47 AM CDT 8:03 PM CDT
Nautical Twilight 5:15 AM CDT 8:35 PM CDT
Astronomical Twilight 4:40 AM CDT 9:10 PM CDT
Moon 1:26 PM CDT (4/19) 2:23 AM CDT (4/19)
Length of Visible Light 14h 15m
Length of Day
13h 20m
First Quarter, 62% of the Moon is Illuminated
Apr 19
First Quarter
Apr 25
Full
May 2
Last Quarter
May 9
New
May 17
First Quarter

Hourly Weather History & Observations

Time (CDT) Temp. Windchill Dew Point Humidity Pressure Visibility Wind Dir Wind Speed Gust Speed Precip Events Conditions
12:15 AM 44.6 °F 39.7 °F 39.2 °F 81% 29.75 in 10.0 mi WNW 9.2 mph 17.3 mph N/A   Overcast
12:35 AM 44.6 °F 39.2 °F 37.4 °F 76% 29.77 in 10.0 mi WNW 10.4 mph 17.3 mph N/A   Overcast
12:55 AM 44.6 °F 42.2 °F 37.4 °F 76% 29.77 in 10.0 mi West 4.6 mph - N/A   Overcast
1:15 AM 44.6 °F 38.8 °F 35.6 °F 71% 29.78 in 10.0 mi WNW 11.5 mph 23.0 mph N/A   Overcast
1:35 AM 42.8 °F 37.5 °F 33.8 °F 70% 29.78 in 10.0 mi WNW 9.2 mph 20.7 mph N/A   Overcast
1:55 AM 42.8 °F 37.5 °F 33.8 °F 70% 29.78 in 10.0 mi West 9.2 mph 17.3 mph N/A   Overcast
2:15 AM 42.8 °F 40.1 °F 33.8 °F 70% 29.79 in 10.0 mi West 4.6 mph - N/A   Overcast
2:35 AM 42.8 °F 38.0 °F 33.8 °F 70% 29.79 in 10.0 mi WNW 8.1 mph 18.4 mph N/A   Overcast
2:55 AM 42.8 °F 37.5 °F 32.0 °F 66% 29.80 in 10.0 mi West 9.2 mph 21.9 mph N/A   Overcast
3:15 AM 42.8 °F 37.5 °F 32.0 °F 66% 29.81 in 10.0 mi West 9.2 mph 19.6 mph N/A   Overcast
3:35 AM 42.8 °F 40.1 °F 32.0 °F 66% 29.81 in 10.0 mi WNW 4.6 mph 17.3 mph N/A   Overcast
3:55 AM 42.8 °F 38.0 °F 32.0 °F 66% 29.81 in 10.0 mi West 8.1 mph 16.1 mph N/A   Overcast
4:15 AM 42.8 °F 38.0 °F 30.2 °F 61% 29.82 in 10.0 mi West 8.1 mph 17.3 mph N/A   Overcast
4:35 AM 42.8 °F 38.6 °F 30.2 °F 61% 29.82 in 10.0 mi West 6.9 mph 17.3 mph N/A   Overcast
4:55 AM 42.8 °F 38.6 °F 30.2 °F 61% 29.83 in 10.0 mi West 6.9 mph - N/A   Overcast
5:15 AM 42.8 °F 37.5 °F 30.2 °F 61% 29.83 in 10.0 mi West 9.2 mph - N/A   Overcast
5:35 AM 42.8 °F 38.6 °F 28.4 °F 57% 29.83 in 10.0 mi WNW 6.9 mph 17.3 mph N/A   Overcast
5:55 AM 42.8 °F 40.1 °F 30.2 °F 61% 29.84 in 10.0 mi West 4.6 mph - N/A   Overcast
6:15 AM 42.8 °F 38.6 °F 30.2 °F 61% 29.85 in 10.0 mi West 6.9 mph - N/A   Overcast
6:55 AM 42.8 °F 36.6 °F 30.2 °F 61% 29.87 in 10.0 mi West 11.5 mph - N/A   Overcast
7:55 AM 42.8 °F 36.6 °F 28.4 °F 57% 29.91 in 10.0 mi West 11.5 mph - N/A   Overcast
8:55 AM 42.8 °F 34.8 °F 30.2 °F 61% 29.92 in 10.0 mi West 17.3 mph - N/A   Overcast
9:55 AM 42.8 °F 34.8 °F 35.6 °F 76% 29.92 in 10.0 mi West 17.3 mph - N/A   Overcast
10:55 AM 44.6 °F 37.2 °F 28.4 °F 53% 29.94 in 10.0 mi West 17.3 mph - N/A   Overcast
11:55 AM 44.6 °F 37.2 °F 28.4 °F 53% 29.95 in 10.0 mi West 17.3 mph - N/A   Overcast
12:55 PM 44.6 °F 38.8 °F 32.0 °F 61% 29.95 in 20.0 mi West 11.5 mph 18.4 mph N/A   Overcast
1:55 PM 46.4 °F 41.1 °F 30.2 °F 53% 29.95 in 20.0 mi WSW 11.5 mph 17.3 mph N/A   Overcast
2:55 PM 46.4 °F 40.4 °F 28.4 °F 50% 29.97 in 20.0 mi WSW 13.8 mph 18.4 mph N/A   Overcast
3:55 PM 50.0 °F - 30.2 °F 47% 29.95 in 20.0 mi WSW 9.2 mph 19.6 mph N/A   Mostly Cloudy
4:55 PM 51.8 °F - 26.6 °F 38% 29.96 in 20.0 mi WSW 13.8 mph 24.2 mph N/A   Mostly Cloudy
5:55 PM 51.8 °F - 26.6 °F 38% 29.97 in 20.0 mi WSW 9.2 mph 17.3 mph N/A   Mostly Cloudy
6:35 PM 51.8 °F - 23.0 °F 33% 29.98 in 10.0 mi West 9.2 mph 19.6 mph N/A   Mostly Cloudy
6:55 PM 51.8 °F - 24.8 °F 35% 29.99 in 10.0 mi West 5.8 mph - N/A   Mostly Cloudy
7:15 PM 51.8 °F - 24.8 °F 35% 30.00 in 10.0 mi Calm Calm - N/A   Mostly Cloudy
7:35 PM 51.8 °F - 24.8 °F 35% 30.01 in 10.0 mi Calm Calm - N/A   Overcast
7:55 PM 51.8 °F - 24.8 °F 35% 30.02 in 10.0 mi WNW 5.8 mph - N/A   Overcast
8:15 PM 50.0 °F - 23.0 °F 35% 30.03 in 10.0 mi Calm Calm - N/A   Scattered Clouds
8:35 PM 50.0 °F - 23.0 °F 35% 30.04 in 10.0 mi WNW 3.5 mph - N/A   Scattered Clouds
8:55 PM 50.0 °F - 24.8 °F 37% 30.05 in 10.0 mi Calm Calm - N/A   Clear
9:15 PM 48.2 °F - 26.6 °F 43% 30.06 in 10.0 mi Calm Calm - N/A   Clear
9:35 PM 48.2 °F - 24.8 °F 40% 30.07 in 10.0 mi Calm Calm - N/A   Clear
9:55 PM 44.6 °F - 28.4 °F 53% 30.08 in 10.0 mi Calm Calm - N/A   Clear
10:15 PM 41.0 °F - 33.8 °F 76% 30.08 in 10.0 mi Calm Calm - N/A   Clear
10:35 PM 41.0 °F - 30.2 °F 65% 30.09 in 10.0 mi Calm Calm - N/A   Clear
10:55 PM 41.0 °F - 32.0 °F 70% 30.09 in 10.0 mi Calm Calm - N/A   Clear
11:15 PM 41.0 °F - 30.2 °F 65% 30.09 in 10.0 mi Calm Calm - N/A   Scattered Clouds
11:35 PM 41.0 °F - 30.2 °F 65% 30.10 in 10.0 mi Calm Calm - N/A   Scattered Clouds
11:55 PM 39.2 °F - 30.2 °F 70% 30.10 in 10.0 mi Calm Calm - N/A   Clear